Regional Weather Roundup
Issued by NWS

Home | Current Version | Previous Version | Text Only | Print | Product List | Glossary Off
Versions: 1 2 3 4 5 6 7 8 9 10 11 12 13 14 15 16 17 18 19 20 21 22 23 24 25 26 27 28 29 30 31 32 33 34 35 36 37 38 39 40 41 42 43 44 45 46 47 48 49 50

000
ASUS43 KDTX 182110
RWRMI
MICHIGAN HOURLY REGIONAL WEATHER ROUNDUP
NATIONAL WEATHER SERVICE DETROIT/PONTIAC MI
400 PM EST THU DEC 18 2014

NOTE: "FAIR" INDICATES FEW OR NO CLOUDS BELOW 12,000 FEET WITH NO
SIGNIFICANT WEATHER AND/OR OBSTRUCTION TO VISIBILITY.

MIZ047>049-052>055-059>063-066>070-074>076-081>083-182200-
SOUTHEAST LOWER MICHIGAN

CITY           SKY/WX    TMP DP  RH WIND       PRES   REMARKS
ADRIAN         CLOUDY    31  26  82 W9        30.18R WCI  23
ALMA           CLOUDY    30  26  86 NW5       30.17R WCI  25
ANN ARBOR      CLOUDY    31  27  85 W8        30.16R WCI  23
BAD AXE        CLOUDY    26  23  89 NW10      30.17R WCI  15
CARO           CLOUDY    28  25  91 N5        30.16R FOG     WCI  22
DETROIT CITY   CLOUDY    34  26  72 W3        30.16R
DETROIT        CLOUDY    33  26  75 W7        30.17R WCI  27
FLINT          CLOUDY    32  28  85 NW7       30.16R FOG     WCI  26
GROSSE ILE     CLOUDY    34  27  75 W6        30.15F WCI  29
HILLSDALE      CLOUDY    29  27  91 W7        30.15S WCI  22
HOWELL         CLOUDY    31  28  90 W5        30.15R WCI  26

CITY           SKY/WX    TMP DP  RH WIND       PRES   REMARKS
JACKSON        CLOUDY    30  27  88 W7        30.16S WCI  23
LAMBERTVILLE   CLOUDY    32  28  86 W6        30.18S WCI  26
LANSING        FRZ RAIN  31  29  92 NW3       30.17R FOG
LAPEER         CLOUDY    29  27  92 N3        30.15R
MASON          CLOUDY    30  28  93 W9        30.16R FOG     WCI  22
MONROE         CLOUDY    32  28  86 W6        30.16S WCI  26
MT. CLEMENS    LGT SNOW  30  30 100 N5        30.14R FOG     WCI  25
PONTIAC        CLOUDY    30  27  88 NW6       30.14R WCI  24
PORT HOPE        N/A     27  22  81 NW8       30.15S WCI  19
PORT HURON     CLOUDY    30  27  86 NW6       30.16R WCI  24
TRI CITIES     CLOUDY    30  23  75 N6        30.18R WCI  24
TROY           CLOUDY    34  28  80 NW5       30.17R WCI  30
SAGINAW HB     CLOUDY    30  28  93 NW6       30.17R WCI  24
$$
MIZ043>046-050>051-056>058-064>065-071>073-077>080-182200-
SOUTHWEST LOWER MICHIGAN

CITY           SKY/WX    TMP DP  RH WIND       PRES   REMARKS
BATTLE CREEK   CLOUDY    30  25  81 W8        30.17S WCI  22
BENTON HARBOR  CLOUDY    28  23  81 W10       30.22R WCI  19
BIG RAPIDS     CLOUDY    29  26  90 W5        30.15S WCI  23
COLDWATER      CLOUDY    29  26  87 W8        30.17S WCI  21
FREMONT        CLOUDY    30  25  79 N6        30.17R WCI  24
HOLLAND        LGT SNOW  33  30  88 NW3       30.18S FOG
GRAND RAPIDS   FLURRIES  32  28  85 W8        30.16S WCI  25
IONIA          CLOUDY    32  30  92 W6        30.15S WCI  27
KALAMAZOO      CLOUDY    30  24  78 W10       30.18S WCI  21
LUDINGTON      MOCLDY    31  24  74 NE5       30.20R WCI  26
MARSHALL       CLOUDY    29  26  86 W8        30.16S WCI  21
MOUNT PLEASANT CLOUDY    29  24  80 NW3       30.17R
MUSKEGON       CLOUDY    34  26  72 N8        30.18R WCI  27
SOUTH HAVEN    CLOUDY    31  27  84 W7        30.20S WCI  24
$$
MIZ016>042-182200-
NORTHERN LOWER MICHIGAN

CITY           SKY/WX    TMP DP  RH WIND       PRES   REMARKS
ALPENA         CLOUDY    24  18  77 N8        30.19R WCI  15
BEAVER ISLAND  CLEAR     24  14  64 N6        30.23R WCI  17
BELLAIRE       CLEAR     27  18  70 N5        30.21R WCI  21
CADILLAC       MOCLDY    26  20  79 N6        30.13S WCI  19
CHARLEVOIX     CLEAR     24  16  72 N10       30.24R WCI  13
FRANKFORT      PTCLDY    28  22  77 N5        30.20S WCI  23
GAYLORD        CLEAR     23  17  78 VRB3      30.15R
GRAYLING       MOCLDY    26  18  73 N6        30.16R WCI  19
HARBOR SPRINGS CLEAR     23  13  65 NW9       30.21R WCI  13
HOUGHTON LAKE  CLOUDY    26  20  77 N9        30.15R WCI  17
MANISTEE       PTCLDY    30  19  64 N5        30.20S WCI  25
OSCODA         CLOUDY    25  20  82 N10       30.18R WCI  15
PELLSTON       CLEAR     21   8  57 N8        30.22R WCI  11
ROGERS CITY    PTCLDY    24  19  80 N7        30.20S WCI  16
TRAVERSE CITY  PTCLDY    28  19  69 N5        30.19S WCI  23
$$
MIZ007>008-015-182200-
EASTERN UPPER MICHIGAN

CITY           SKY/WX    TMP DP  RH WIND       PRES   REMARKS
KINROSS        CLEAR     21  16  79 NW7       30.21R WCI  13
MACKINAC ISLAN CLEAR     24  13  63 N6        30.20S WCI  17
NEWBERRY       CLEAR     23  17  75 N9        30.21S WCI  13
S. S. MARIE    CLEAR     23   9  55 NW7       30.19F WCI  15
MUNISING         N/A     31  21  66 N13       30.25R WCI  21
$$
MIZ004>006-011>014-085-182200-
CENTRAL UPPER MICHIGAN

CITY           SKY/WX    TMP DP  RH WIND       PRES   REMARKS
MANISTIQUE     CLEAR     27  17  67 N9        30.23R WCI  18
ESCANABA       CLEAR     28  16  59 CALM      30.24R
MENOMINEE      CLEAR     28  12  50 NE7       30.23S WCI  21
SAWYER-GWINN   PTCLDY    25  18  74 NE9       30.22R WCI  15
$$
MIZ001>003-009>011-084-182200-
WESTERN UPPER MICHIGAN

CITY           SKY/WX    TMP DP  RH WIND       PRES   REMARKS
IRON MOUNTAIN  CLEAR     26  16  65 N6        30.21R WCI  19
HOUGHTON       CLEAR     26  16  65 CALM      30.24S
COPPER HARBOR    N/A     29  18  63 NE5       30.27R WCI  24
IRONWOOD       CLEAR     25  18  74 CALM      30.20S
$$

ABBREVIATIONS USED IN REMARKS
   TC - TEMPERATURE IN CELSIUS
  WCI - WIND CHILL INDEX
   HX - HEAT INDEX
  VSB - VISIBILITY




USA.gov is the U.S. government's official web portal to all federal, state and local government web resources and services.